TELSTAR 12V

Last updated on Tue Sep 22 2026 00:03:13 GMT+0000 (Coordinated Universal Time)

1 41036U 15068A 26264.20098940 .00000000 00000+0 00000+0 0 9994 2 41036 0.0229 176.2215 0002216 358.2381 242.9864 1.00270180 39583
UTC large
Height (km)
Speed (km/s)
/
Latitude / Longitude
Inclination (degrees)
Orbital Period (minutes)
Azimuth
Elevation
Range (km)
Doppler Factor

Next 0 passes for location: London (51.5072 / 0.1276)

No passes found over London.
TELSTAR 12V